contact:dominique.lefevre@mio.osupytheas.fr, maurice.libes@osupytheas.fr, didier.mallarino@osupytheas.fr
Project:EMSO http://www.emso-fr.org/EMSO-France
Depth: 2436.0 m
Title:EMSO Ligure Ouest : Data MII capteur CSTAR
DateTime,Latitude,Longitude,Instrument_Serial,Reference_Counts,Signal_Counts,Corrected_Signal_raw_counts,Calculated_Beam_c_inverse_meters,Internal_thermistor_counts
DateTime,Latitude,Longitude,Instrument_Serial,Reference_Counts,Signal_Counts,Corrected_Signal_raw_counts,Calculated_Beam_c_inverse_meters,Internal_thermistor_counts
2021-04-06T00:01:43,42.805,6.029,CST-1368DR,5575,7794,15023,0.155,551
2021-04-06T00:04:45,42.805,6.029,CST-1368DR,5575,7793,15022,0.155,551
2021-04-06T00:07:46,42.805,6.029,CST-1368DR,5575,7794,15023,0.155,551
2021-04-06T00:10:48,42.805,6.029,CST-1368DR,5575,7794,15023,0.155,551
2021-04-06T00:13:50,42.805,6.029,CST-1368DR,5575,7794,15023,0.155,551
2021-04-06T00:16:51,42.805,6.029,CST-1368DR,5575,7794,15023,0.155,551
2021-04-06T00:19:53,42.805,6.029,CST-1368DR,5575,7794,15023,0.155,551
2021-04-06T00:22:54,42.805,6.029,CST-1368DR,5575,7794,15022,0.155,551
2021-04-06T00:25:56,42.805,6.029,CST-1368DR,5575,7792,15019,0.156,551
2021-04-06T00:28:57,42.805,6.029,CST-1368DR,5575,7793,15020,0.156,551
2021-04-06T00:31:59,42.805,6.029,CST-1368DR,5575,7792,15019,0.156,551
2021-04-06T00:35:01,42.805,6.029,CST-1368DR,5575,7792,15019,0.156,551
2021-04-06T00:38:02,42.805,6.029,CST-1368DR,5575,7793,15020,0.156,551
2021-04-06T00:41:04,42.805,6.029,CST-1368DR,5575,7792,15019,0.156,551
2021-04-06T00:44:05,42.805,6.029,CST-1368DR,5575,7793,15020,0.156,551
2021-04-06T00:47:07,42.805,6.029,CST-1368DR,5575,7793,15020,0.156,551
2021-04-06T00:50:09,42.805,6.029,CST-1368DR,5575,7789,15014,0.157,551
2021-04-06T00:53:10,42.805,6.029,CST-1368DR,5575,7793,15022,0.155,551
2021-04-06T00:56:12,42.805,6.029,CST-1368DR,5575,7792,15019,0.156,551
2021-04-06T00:59:13,42.805,6.029,CST-1368DR,5575,7793,15020,0.156,551
2021-04-06T01:02:15,42.805,6.029,CST-1368DR,5575,7794,15023,0.155,551
2021-04-06T01:05:16,42.805,6.029,CST-1368DR,5575,7793,15021,0.155,551
2021-04-06T01:08:18,42.805,6.029,CST-1368DR,5575,7793,15021,0.155,551
2021-04-06T01:11:20,42.805,6.029,CST-1368DR,5575,7792,15019,0.156,551
2021-04-06T01:14:21,42.805,6.029,CST-1368DR,5575,7794,15023,0.155,551
2021-04-06T01:17:23,42.805,6.029,CST-1368DR,5575,7791,15018,0.156,551
2021-04-06T01:20:24,42.805,6.029,CST-1368DR,5575,7788,15012,0.158,551
2021-04-06T01:23:26,42.805,6.029,CST-1368DR,5575,7794,15023,0.155,551
2021-04-06T01:26:27,42.805,6.029,CST-1368DR,5575,7794,15023,0.155,551
2021-04-06T01:29:29,42.805,6.029,CST-1368DR,5575,7793,15021,0.155,551
2021-04-06T01:32:31,42.805,6.029,CST-1368DR,5575,7793,15022,0.155,551
2021-04-06T01:35:32,42.805,6.029,CST-1368DR,5575,7790,15016,0.157,551
2021-04-06T01:38:34,42.805,6.029,CST-1368DR,5575,7794,15022,0.155,551
2021-04-06T01:41:35,42.805,6.029,CST-1368DR,5575,7794,15022,0.155,551
2021-04-06T01:44:37,42.805,6.029,CST-1368DR,5575,7793,15021,0.155,551
2021-04-06T01:47:39,42.805,6.029,CST-1368DR,5575,7791,15018,0.156,551
2021-04-06T01:50:40,42.805,6.029,CST-1368DR,5575,7793,15021,0.155,551
2021-04-06T01:53:42,42.805,6.029,CST-1368DR,5575,7791,15018,0.156,551
2021-04-06T01:56:43,42.805,6.029,CST-1368DR,5575,7794,15023,0.155,551
2021-04-06T01:59:45,42.805,6.029,CST-1368DR,5575,7794,15022,0.155,551
2021-04-06T02:02:46,42.805,6.029,CST-1368DR,5575,7792,15019,0.156,551
2021-04-06T02:05:48,42.805,6.029,CST-1368DR,5575,7793,15021,0.155,551
2021-04-06T02:08:50,42.805,6.029,CST-1368DR,5575,7789,15014,0.157,551
2021-04-06T02:11:51,42.805,6.029,CST-1368DR,5575,7793,15020,0.156,551
2021-04-06T02:14:53,42.805,6.029,CST-1368DR,5575,7793,15021,0.155,551
2021-04-06T02:17:54,42.805,6.029,CST-1368DR,5575,7793,15021,0.155,551
2021-04-06T02:20:56,42.805,6.029,CST-1368DR,5575,7788,15012,0.158,551
2021-04-06T02:23:58,42.805,6.029,CST-1368DR,5575,7793,15021,0.155,551
2021-04-06T02:26:59,42.805,6.029,CST-1368DR,5575,7793,15022,0.155,551
2021-04-06T02:30:01,42.805,6.029,CST-1368DR,5575,7793,15020,0.156,551
2021-04-06T02:33:02,42.805,6.029,CST-1368DR,5575,7793,15022,0.155,551
2021-04-06T02:36:04,42.805,6.029,CST-1368DR,5575,7793,15021,0.155,551
2021-04-06T02:39:05,42.805,6.029,CST-1368DR,5575,7793,15021,0.155,551
2021-04-06T02:42:07,42.805,6.029,CST-1368DR,5575,7792,15019,0.156,551
2021-04-06T02:45:09,42.805,6.029,CST-1368DR,5575,7793,15021,0.155,551
2021-04-06T02:48:10,42.805,6.029,CST-1368DR,5575,7793,15021,0.155,551
2021-04-06T02:51:12,42.805,6.029,CST-1368DR,5574,7793,15023,0.155,551
2021-04-06T02:54:13,42.805,6.029,CST-1368DR,5574,7793,15023,0.155,550
2021-04-06T02:57:15,42.805,6.029,CST-1368DR,5574,7791,15021,0.155,551
2021-04-06T03:00:16,42.805,6.029,CST-1368DR,5574,7792,15021,0.155,551
2021-04-06T03:03:18,42.805,6.029,CST-1368DR,5574,7793,15023,0.155,551
2021-04-06T03:06:20,42.805,6.029,CST-1368DR,5574,7791,15020,0.156,551
2021-04-06T03:09:21,42.805,6.029,CST-1368DR,5574,7791,15019,0.156,551
2021-04-06T03:12:23,42.805,6.029,CST-1368DR,5574,7786,15010,0.158,551
2021-04-06T03:15:24,42.805,6.029,CST-1368DR,5574,7793,15023,0.155,551
2021-04-06T03:18:26,42.805,6.029,CST-1368DR,5574,7791,15020,0.156,551
2021-04-06T03:21:28,42.805,6.029,CST-1368DR,5574,7793,15023,0.155,551
2021-04-06T03:24:29,42.805,6.029,CST-1368DR,5574,7793,15023,0.155,551
2021-04-06T03:27:31,42.805,6.029,CST-1368DR,5574,7789,15017,0.156,551
2021-04-06T03:30:32,42.805,6.029,CST-1368DR,5574,7793,15023,0.155,551
2021-04-06T03:33:34,42.805,6.029,CST-1368DR,5574,7792,15022,0.155,551
2021-04-06T03:36:35,42.805,6.029,CST-1368DR,5574,7788,15014,0.157,551
2021-04-06T03:39:37,42.805,6.029,CST-1368DR,5574,7792,15022,0.155,551
2021-04-06T03:42:39,42.805,6.029,CST-1368DR,5574,7792,15021,0.155,551
2021-04-06T03:45:40,42.805,6.029,CST-1368DR,5574,7791,15020,0.156,551
2021-04-06T03:48:42,42.805,6.029,CST-1368DR,5574,7792,15022,0.155,551
2021-04-06T03:51:43,42.805,6.029,CST-1368DR,5574,7793,15023,0.155,551
2021-04-06T03:54:45,42.805,6.029,CST-1368DR,5574,7792,15021,0.155,551
2021-04-06T03:57:46,42.805,6.029,CST-1368DR,5574,7793,15024,0.155,551
2021-04-06T04:00:48,42.805,6.029,CST-1368DR,5574,7792,15022,0.155,551
2021-04-06T04:03:50,42.805,6.029,CST-1368DR,5574,7792,15022,0.155,551
2021-04-06T04:06:51,42.805,6.029,CST-1368DR,5574,7789,15016,0.157,551
2021-04-06T04:09:53,42.805,6.029,CST-1368DR,5574,7792,15022,0.155,551
2021-04-06T04:12:54,42.805,6.029,CST-1368DR,5574,7790,15017,0.156,551
2021-04-06T04:15:56,42.805,6.029,CST-1368DR,5574,7791,15021,0.155,551
2021-04-06T04:18:58,42.805,6.029,CST-1368DR,5574,7792,15021,0.155,551
2021-04-06T04:21:59,42.805,6.029,CST-1368DR,5574,7790,15019,0.156,550
2021-04-06T04:25:01,42.805,6.029,CST-1368DR,5574,7789,15017,0.156,551
2021-04-06T04:28:02,42.805,6.029,CST-1368DR,5574,7789,15015,0.157,551
2021-04-06T04:31:04,42.805,6.029,CST-1368DR,5574,7789,15015,0.157,551
2021-04-06T04:34:05,42.805,6.029,CST-1368DR,5573,7785,15010,0.158,551
2021-04-06T04:37:07,42.805,6.029,CST-1368DR,5573,7791,15022,0.155,551
2021-04-06T04:40:09,42.805,6.029,CST-1368DR,5573,7784,15009,0.159,551
2021-04-06T04:43:10,42.805,6.029,CST-1368DR,5573,7781,15003,0.160,550
2021-04-06T04:46:12,42.805,6.029,CST-1368DR,5573,7789,15018,0.156,551
2021-04-06T04:49:13,42.805,6.029,CST-1368DR,5573,7788,15017,0.156,551
2021-04-06T04:52:15,42.805,6.029,CST-1368DR,5573,7789,15019,0.156,551
2021-04-06T04:55:17,42.805,6.029,CST-1368DR,5573,7791,15022,0.155,551
2021-04-06T04:58:18,42.805,6.029,CST-1368DR,5573,7785,15011,0.158,551
2021-04-06T05:01:20,42.805,6.029,CST-1368DR,5572,7780,15004,0.160,551
2021-04-06T05:04:21,42.805,6.029,CST-1368DR,5572,7786,15015,0.157,551
2021-04-06T05:07:23,42.805,6.029,CST-1368DR,5572,7786,15016,0.157,551
2021-04-06T05:10:24,42.805,6.029,CST-1368DR,5572,7788,15020,0.156,551
2021-04-06T05:13:26,42.805,6.029,CST-1368DR,5572,7790,15023,0.155,551
2021-04-06T05:16:28,42.805,6.029,CST-1368DR,5572,7786,15016,0.157,551
2021-04-06T05:19:29,42.805,6.029,CST-1368DR,5572,7790,15024,0.155,551
2021-04-06T05:22:31,42.805,6.029,CST-1368DR,5572,7790,15023,0.155,551
2021-04-06T05:25:32,42.805,6.029,CST-1368DR,5572,7786,15015,0.157,550
2021-04-06T05:28:34,42.805,6.029,CST-1368DR,5572,7784,15012,0.158,551
2021-04-06T05:31:35,42.805,6.029,CST-1368DR,5572,7786,15016,0.157,551
2021-04-06T05:34:37,42.805,6.029,CST-1368DR,5572,7787,15017,0.156,551
2021-04-06T05:37:39,42.805,6.029,CST-1368DR,5572,7786,15016,0.157,551
2021-04-06T05:40:40,42.805,6.029,CST-1368DR,5572,7782,15008,0.159,550
2021-04-06T05:43:42,42.805,6.029,CST-1368DR,5572,7785,15013,0.158,551
2021-04-06T05:46:43,42.805,6.029,CST-1368DR,5571,7780,15007,0.159,550
2021-04-06T05:49:45,42.805,6.029,CST-1368DR,5572,7786,15015,0.157,551
2021-04-06T05:52:47,42.805,6.029,CST-1368DR,5572,7783,15009,0.159,550
2021-04-06T05:55:48,42.805,6.029,CST-1368DR,5572,7785,15013,0.158,551
2021-04-06T05:58:50,42.805,6.029,CST-1368DR,5571,7787,15020,0.156,550
2021-04-06T06:01:51,42.805,6.029,CST-1368DR,5571,7787,15021,0.155,550
2021-04-06T06:04:53,42.805,6.029,CST-1368DR,5571,7787,15020,0.156,551
2021-04-06T06:07:54,42.805,6.029,CST-1368DR,5571,7785,15015,0.157,551
2021-04-06T06:10:56,42.805,6.029,CST-1368DR,5571,7786,15018,0.156,551
2021-04-06T06:13:58,42.805,6.029,CST-1368DR,5571,7787,15019,0.156,551
2021-04-06T06:16:59,42.805,6.029,CST-1368DR,5572,7788,15018,0.156,551
2021-04-06T06:20:01,42.805,6.029,CST-1368DR,5572,7788,15019,0.156,551
2021-04-06T06:23:02,42.805,6.029,CST-1368DR,5572,7788,15018,0.156,551
2021-04-06T06:26:04,42.805,6.029,CST-1368DR,5572,7784,15011,0.158,551
2021-04-06T06:29:06,42.805,6.029,CST-1368DR,5572,7788,15019,0.156,550
2021-04-06T06:32:07,42.805,6.029,CST-1368DR,5572,7790,15023,0.155,550
2021-04-06T06:35:09,42.805,6.029,CST-1368DR,5572,7789,15022,0.155,551
2021-04-06T06:38:10,42.805,6.029,CST-1368DR,5572,7789,15021,0.155,551
2021-04-06T06:41:12,42.805,6.029,CST-1368DR,5572,7790,15023,0.155,551
2021-04-06T06:44:13,42.805,6.029,CST-1368DR,5572,7789,15022,0.155,551
2021-04-06T06:47:15,42.805,6.029,CST-1368DR,5572,7790,15023,0.155,551
2021-04-06T06:50:17,42.805,6.029,CST-1368DR,5572,7791,15025,0.154,551
2021-04-06T06:53:18,42.805,6.029,CST-1368DR,5572,7790,15023,0.155,551
2021-04-06T06:56:20,42.805,6.029,CST-1368DR,5572,7789,15022,0.155,551
2021-04-06T06:59:21,42.805,6.029,CST-1368DR,5572,7790,15023,0.155,551
2021-04-06T07:02:23,42.805,6.029,CST-1368DR,5572,7791,15025,0.154,551
2021-04-06T07:05:24,42.805,6.029,CST-1368DR,5572,7791,15025,0.154,551
2021-04-06T07:08:26,42.805,6.029,CST-1368DR,5572,7791,15025,0.154,550
2021-04-06T07:11:28,42.805,6.029,CST-1368DR,5572,7791,15024,0.155,551
2021-04-06T07:14:29,42.805,6.029,CST-1368DR,5572,7789,15021,0.155,550
2021-04-06T07:17:31,42.805,6.029,CST-1368DR,5573,7790,15021,0.155,551
2021-04-06T07:20:32,42.805,6.029,CST-1368DR,5572,7792,15027,0.154,551
2021-04-06T07:23:34,42.805,6.029,CST-1368DR,5572,7790,15023,0.155,551
2021-04-06T07:26:36,42.805,6.029,CST-1368DR,5572,7791,15025,0.154,550
2021-04-06T07:29:37,42.805,6.029,CST-1368DR,5572,7791,15025,0.154,551
2021-04-06T07:32:39,42.805,6.029,CST-1368DR,5573,7791,15023,0.155,551
2021-04-06T07:35:40,42.805,6.029,CST-1368DR,5573,7792,15024,0.155,550
2021-04-06T07:38:42,42.805,6.029,CST-1368DR,5573,7791,15023,0.155,551
2021-04-06T07:41:43,42.805,6.029,CST-1368DR,5573,7792,15024,0.155,551
2021-04-06T07:44:45,42.805,6.029,CST-1368DR,5572,7790,15023,0.155,551
2021-04-06T07:47:47,42.805,6.029,CST-1368DR,5572,7788,15019,0.156,551
2021-04-06T07:50:48,42.805,6.029,CST-1368DR,5572,7790,15024,0.155,551
2021-04-06T07:53:50,42.805,6.029,CST-1368DR,5573,7790,15021,0.155,551
2021-04-06T07:56:51,42.805,6.029,CST-1368DR,5573,7790,15021,0.155,551
2021-04-06T07:59:53,42.805,6.029,CST-1368DR,5573,7791,15023,0.155,551
2021-04-06T08:02:54,42.805,6.029,CST-1368DR,5572,7791,15025,0.154,551
2021-04-06T08:05:56,42.805,6.029,CST-1368DR,5572,7791,15025,0.154,551
2021-04-06T08:08:58,42.805,6.029,CST-1368DR,5572,7790,15022,0.155,551
2021-04-06T08:11:59,42.805,6.029,CST-1368DR,5572,7788,15019,0.156,551
2021-04-06T08:15:01,42.805,6.029,CST-1368DR,5573,7790,15020,0.156,551
2021-04-06T08:18:02,42.805,6.029,CST-1368DR,5572,7789,15020,0.156,551
2021-04-06T08:21:04,42.805,6.029,CST-1368DR,5572,7790,15023,0.155,551
2021-04-06T08:24:06,42.805,6.029,CST-1368DR,5572,7790,15023,0.155,551
2021-04-06T08:27:07,42.805,6.029,CST-1368DR,5572,7790,15023,0.155,551
2021-04-06T08:30:09,42.805,6.029,CST-1368DR,5572,7790,15023,0.155,551
2021-04-06T08:33:10,42.805,6.029,CST-1368DR,5572,7791,15024,0.155,551
2021-04-06T08:36:12,42.805,6.029,CST-1368DR,5573,7787,15015,0.157,551
2021-04-06T08:39:13,42.805,6.029,CST-1368DR,5572,7791,15024,0.155,551
2021-04-06T08:42:15,42.805,6.029,CST-1368DR,5572,7789,15022,0.155,551
2021-04-06T08:45:17,42.805,6.029,CST-1368DR,5572,7788,15019,0.156,551
2021-04-06T08:48:18,42.805,6.029,CST-1368DR,5572,7787,15017,0.156,551
2021-04-06T08:51:20,42.805,6.029,CST-1368DR,5572,7790,15022,0.155,551
2021-04-06T08:54:21,42.805,6.029,CST-1368DR,5572,7790,15024,0.155,551
2021-04-06T08:57:23,42.805,6.029,CST-1368DR,5572,7788,15019,0.156,551
2021-04-06T09:00:25,42.805,6.029,CST-1368DR,5572,7790,15023,0.155,551
2021-04-06T09:03:26,42.805,6.029,CST-1368DR,5572,7790,15023,0.155,551
2021-04-06T09:06:28,42.805,6.029,CST-1368DR,5572,7791,15025,0.154,551
2021-04-06T09:09:29,42.805,6.029,CST-1368DR,5572,7791,15025,0.154,551
2021-04-06T09:12:31,42.805,6.029,CST-1368DR,5572,7791,15024,0.155,551
2021-04-06T09:15:32,42.805,6.029,CST-1368DR,5572,7785,15013,0.158,551
2021-04-06T09:18:34,42.805,6.029,CST-1368DR,5572,7789,15021,0.155,551
2021-04-06T09:21:36,42.805,6.029,CST-1368DR,5572,7790,15023,0.155,551
2021-04-06T09:24:37,42.805,6.029,CST-1368DR,5572,7790,15023,0.155,551
2021-04-06T09:27:39,42.805,6.029,CST-1368DR,5572,7790,15022,0.155,551
2021-04-06T09:30:40,42.805,6.029,CST-1368DR,5572,7789,15020,0.156,551
2021-04-06T09:33:42,42.805,6.029,CST-1368DR,5572,7789,15020,0.156,551
2021-04-06T09:36:43,42.805,6.029,CST-1368DR,5572,7791,15025,0.154,551
2021-04-06T09:39:45,42.805,6.029,CST-1368DR,5572,7785,15013,0.158,551
2021-04-06T09:42:47,42.805,6.029,CST-1368DR,5572,7789,15021,0.155,551
2021-04-06T09:45:48,42.805,6.029,CST-1368DR,5572,7790,15022,0.155,551
2021-04-06T09:48:50,42.805,6.029,CST-1368DR,5572,7789,15020,0.156,551
2021-04-06T09:51:51,42.805,6.029,CST-1368DR,5572,7787,15018,0.156,551
2021-04-06T09:54:53,42.805,6.029,CST-1368DR,5572,7787,15017,0.156,551
2021-04-06T09:57:55,42.805,6.029,CST-1368DR,5572,7787,15017,0.156,551
2021-04-06T10:00:56,42.805,6.029,CST-1368DR,5572,7788,15020,0.156,551
2021-04-06T10:03:58,42.805,6.029,CST-1368DR,5572,7789,15022,0.155,551
2021-04-06T10:06:59,42.805,6.029,CST-1368DR,5572,7788,15019,0.156,551
2021-04-06T10:10:01,42.805,6.029,CST-1368DR,5572,7789,15022,0.155,551
2021-04-06T10:13:02,42.805,6.029,CST-1368DR,5572,7788,15020,0.156,551
2021-04-06T10:16:04,42.805,6.029,CST-1368DR,5572,7787,15017,0.156,551
2021-04-06T10:19:06,42.805,6.029,CST-1368DR,5572,7786,15015,0.157,551
2021-04-06T10:22:07,42.805,6.029,CST-1368DR,5572,7786,15015,0.157,551
2021-04-06T10:25:09,42.805,6.029,CST-1368DR,5572,7788,15020,0.156,551
2021-04-06T10:28:10,42.805,6.029,CST-1368DR,5572,7786,15016,0.157,551
2021-04-06T10:31:12,42.805,6.029,CST-1368DR,5572,7788,15019,0.156,551
2021-04-06T10:34:13,42.805,6.029,CST-1368DR,5572,7788,15020,0.156,551
2021-04-06T10:37:15,42.805,6.029,CST-1368DR,5572,7788,15019,0.156,551
2021-04-06T10:40:17,42.805,6.029,CST-1368DR,5572,7788,15019,0.156,551
2021-04-06T10:43:18,42.805,6.029,CST-1368DR,5572,7788,15020,0.156,551
2021-04-06T10:46:20,42.805,6.029,CST-1368DR,5572,7787,15017,0.156,551
2021-04-06T10:49:21,42.805,6.029,CST-1368DR,5572,7787,15017,0.156,551
2021-04-06T10:52:23,42.805,6.029,CST-1368DR,5572,7788,15019,0.156,551
2021-04-06T10:55:25,42.805,6.029,CST-1368DR,5572,7788,15019,0.156,551
2021-04-06T10:58:26,42.805,6.029,CST-1368DR,5572,7788,15019,0.156,551
2021-04-06T11:01:28,42.805,6.029,CST-1368DR,5572,7788,15018,0.156,551
2021-04-06T11:04:29,42.805,6.029,CST-1368DR,5572,7789,15021,0.155,551
2021-04-06T11:07:31,42.805,6.029,CST-1368DR,5572,7789,15022,0.155,551
2021-04-06T11:10:32,42.805,6.029,CST-1368DR,5572,7787,15018,0.156,551
2021-04-06T11:13:34,42.805,6.029,CST-1368DR,5572,7787,15017,0.156,551
2021-04-06T11:16:36,42.805,6.029,CST-1368DR,5572,7789,15020,0.156,551
2021-04-06T11:19:37,42.805,6.029,CST-1368DR,5572,7787,15017,0.156,551
2021-04-06T11:22:39,42.805,6.029,CST-1368DR,5572,7789,15020,0.156,551
2021-04-06T11:25:40,42.805,6.029,CST-1368DR,5572,7788,15019,0.156,551
2021-04-06T11:28:42,42.805,6.029,CST-1368DR,5572,7788,15019,0.156,551
2021-04-06T11:31:44,42.805,6.029,CST-1368DR,5572,7788,15018,0.156,551
2021-04-06T11:34:45,42.805,6.029,CST-1368DR,5572,7788,15019,0.156,551
2021-04-06T11:37:47,42.805,6.029,CST-1368DR,5572,7789,15020,0.156,551
2021-04-06T11:40:48,42.805,6.029,CST-1368DR,5572,7788,15019,0.156,551
2021-04-06T11:43:50,42.805,6.029,CST-1368DR,5572,7787,15017,0.156,551
2021-04-06T11:46:51,42.805,6.029,CST-1368DR,5572,7788,15019,0.156,551
2021-04-06T11:49:53,42.805,6.029,CST-1368DR,5572,7787,15018,0.156,551
2021-04-06T11:52:55,42.805,6.029,CST-1368DR,5572,7788,15019,0.156,551
2021-04-06T11:55:56,42.805,6.029,CST-1368DR,5572,7788,15020,0.156,551
2021-04-06T11:58:58,42.805,6.029,CST-1368DR,5571,7783,15012,0.158,551
2021-04-06T12:01:59,42.805,6.029,CST-1368DR,5572,7788,15018,0.156,551
2021-04-06T12:05:01,42.805,6.029,CST-1368DR,5572,7786,15016,0.157,551
2021-04-06T12:08:03,42.805,6.029,CST-1368DR,5572,7788,15018,0.156,551
2021-04-06T12:11:04,42.805,6.029,CST-1368DR,5572,7788,15019,0.156,551
2021-04-06T12:14:06,42.805,6.029,CST-1368DR,5572,7787,15017,0.156,551
2021-04-06T12:17:07,42.805,6.029,CST-1368DR,5572,7785,15013,0.158,551
2021-04-06T12:20:09,42.805,6.029,CST-1368DR,5572,7787,15018,0.156,551
2021-04-06T12:23:10,42.805,6.029,CST-1368DR,5571,7787,15019,0.156,551
2021-04-06T12:26:12,42.805,6.029,CST-1368DR,5571,7788,15022,0.155,550
2021-04-06T12:29:14,42.805,6.029,CST-1368DR,5571,7787,15020,0.156,551
2021-04-06T12:32:15,42.805,6.029,CST-1368DR,5571,7788,15021,0.155,551
2021-04-06T12:35:17,42.805,6.029,CST-1368DR,5572,7788,15018,0.156,551
2021-04-06T12:38:18,42.805,6.029,CST-1368DR,5571,7787,15020,0.156,551
2021-04-06T12:41:20,42.805,6.029,CST-1368DR,5571,7787,15021,0.155,551
2021-04-06T12:44:21,42.805,6.029,CST-1368DR,5571,7786,15018,0.156,551
2021-04-06T12:47:23,42.805,6.029,CST-1368DR,5571,7787,15021,0.155,551
2021-04-06T12:50:25,42.805,6.029,CST-1368DR,5571,7787,15021,0.155,551
2021-04-06T12:53:26,42.805,6.029,CST-1368DR,5571,7787,15021,0.155,551
2021-04-06T12:56:28,42.805,6.029,CST-1368DR,5571,7787,15020,0.156,551
2021-04-06T12:59:29,42.805,6.029,CST-1368DR,5571,7786,15019,0.156,551
2021-04-06T13:02:31,42.805,6.029,CST-1368DR,5571,7787,15021,0.155,551
2021-04-06T13:05:33,42.805,6.029,CST-1368DR,5571,7787,15021,0.155,551
2021-04-06T13:08:34,42.805,6.029,CST-1368DR,5571,7788,15022,0.155,551
2021-04-06T13:11:36,42.805,6.029,CST-1368DR,5571,7788,15021,0.155,551
2021-04-06T13:14:37,42.805,6.029,CST-1368DR,5571,7788,15022,0.155,551
2021-04-06T13:17:39,42.805,6.029,CST-1368DR,5571,7788,15022,0.155,551
2021-04-06T13:20:40,42.805,6.029,CST-1368DR,5571,7787,15020,0.156,551
2021-04-06T13:23:42,42.805,6.029,CST-1368DR,5571,7786,15018,0.156,551
2021-04-06T13:26:44,42.805,6.029,CST-1368DR,5571,7787,15020,0.156,551
2021-04-06T13:29:45,42.805,6.029,CST-1368DR,5571,7788,15021,0.155,551
2021-04-06T13:32:47,42.805,6.029,CST-1368DR,5571,7788,15022,0.155,551
2021-04-06T13:35:48,42.805,6.029,CST-1368DR,5571,7788,15022,0.155,550
2021-04-06T13:38:50,42.805,6.029,CST-1368DR,5571,7788,15022,0.155,551
2021-04-06T13:41:52,42.805,6.029,CST-1368DR,5571,7788,15022,0.155,551
2021-04-06T13:44:53,42.805,6.029,CST-1368DR,5571,7786,15018,0.156,551
2021-04-06T13:47:55,42.805,6.029,CST-1368DR,5571,7788,15021,0.155,551
2021-04-06T13:50:56,42.805,6.029,CST-1368DR,5571,7787,15019,0.156,551
2021-04-06T13:53:58,42.805,6.029,CST-1368DR,5571,7788,15022,0.155,551
2021-04-06T13:56:59,42.805,6.029,CST-1368DR,5571,7786,15019,0.156,551
2021-04-06T14:00:01,42.805,6.029,CST-1368DR,5571,7788,15021,0.155,551
2021-04-06T14:03:03,42.805,6.029,CST-1368DR,5571,7789,15024,0.155,551
2021-04-06T14:06:04,42.805,6.029,CST-1368DR,5571,7787,15020,0.156,551
2021-04-06T14:09:06,42.805,6.029,CST-1368DR,5571,7788,15021,0.155,551
2021-04-06T14:12:07,42.805,6.029,CST-1368DR,5571,7787,15020,0.156,551
2021-04-06T14:15:09,42.805,6.029,CST-1368DR,5571,7789,15023,0.155,551
2021-04-06T14:18:10,42.805,6.029,CST-1368DR,5571,7788,15021,0.155,551
2021-04-06T14:21:12,42.805,6.029,CST-1368DR,5571,7785,15017,0.156,551
2021-04-06T14:24:14,42.805,6.029,CST-1368DR,5571,7788,15021,0.155,551
2021-04-06T14:27:15,42.805,6.029,CST-1368DR,5571,7787,15021,0.155,551
2021-04-06T14:30:17,42.805,6.029,CST-1368DR,5571,7788,15021,0.155,551
2021-04-06T14:33:18,42.805,6.029,CST-1368DR,5571,7786,15019,0.156,551
2021-04-06T14:36:20,42.805,6.029,CST-1368DR,5571,7788,15021,0.155,551
2021-04-06T14:39:22,42.805,6.029,CST-1368DR,5571,7787,15020,0.156,551
2021-04-06T14:42:23,42.805,6.029,CST-1368DR,5571,7788,15022,0.155,550
2021-04-06T14:45:25,42.805,6.029,CST-1368DR,5571,7780,15006,0.159,551
2021-04-06T14:48:26,42.805,6.029,CST-1368DR,5571,7788,15021,0.155,551
2021-04-06T14:51:28,42.805,6.029,CST-1368DR,5571,7786,15019,0.156,551
2021-04-06T14:54:29,42.805,6.029,CST-1368DR,5571,7786,15019,0.156,551
2021-04-06T14:57:31,42.805,6.029,CST-1368DR,5571,7786,15018,0.156,551
2021-04-06T15:00:33,42.805,6.029,CST-1368DR,5571,7785,15016,0.157,551
2021-04-06T15:03:34,42.805,6.029,CST-1368DR,5571,7788,15021,0.155,551
2021-04-06T15:06:36,42.805,6.029,CST-1368DR,5571,7787,15020,0.156,551
2021-04-06T15:09:37,42.805,6.029,CST-1368DR,5571,7787,15020,0.156,551
2021-04-06T15:12:39,42.805,6.029,CST-1368DR,5571,7783,15013,0.158,551
2021-04-06T15:15:40,42.805,6.029,CST-1368DR,5571,7787,15020,0.156,551
2021-04-06T15:18:42,42.805,6.029,CST-1368DR,5571,7787,15020,0.156,551
2021-04-06T15:21:44,42.805,6.029,CST-1368DR,5570,7787,15022,0.155,551
2021-04-06T15:24:45,42.805,6.029,CST-1368DR,5571,7787,15020,0.156,551
2021-04-06T15:27:47,42.805,6.029,CST-1368DR,5570,7785,15019,0.156,551
2021-04-06T15:30:48,42.805,6.029,CST-1368DR,5571,7787,15020,0.156,551
2021-04-06T15:33:50,42.805,6.029,CST-1368DR,5570,7786,15021,0.155,551
2021-04-06T15:36:52,42.805,6.029,CST-1368DR,5570,7786,15021,0.155,551
2021-04-06T15:39:53,42.805,6.029,CST-1368DR,5570,7787,15023,0.155,551
2021-04-06T15:42:55,42.805,6.029,CST-1368DR,5570,7785,15019,0.156,551
2021-04-06T15:45:56,42.805,6.029,CST-1368DR,5570,7786,15021,0.155,551
2021-04-06T15:48:58,42.805,6.029,CST-1368DR,5570,7784,15017,0.156,551
2021-04-06T15:51:59,42.805,6.029,CST-1368DR,5570,7787,15022,0.155,551
2021-04-06T15:55:01,42.805,6.029,CST-1368DR,5570,7785,15019,0.156,551
2021-04-06T15:58:03,42.805,6.029,CST-1368DR,5570,7786,15021,0.155,551
2021-04-06T16:01:04,42.805,6.029,CST-1368DR,5570,7786,15021,0.155,551
2021-04-06T16:04:06,42.805,6.029,CST-1368DR,5571,7787,15019,0.156,551
2021-04-06T16:07:07,42.805,6.029,CST-1368DR,5570,7787,15022,0.155,551
2021-04-06T16:10:09,42.805,6.029,CST-1368DR,5570,7787,15022,0.155,551
2021-04-06T16:13:11,42.805,6.029,CST-1368DR,5570,7785,15019,0.156,551
2021-04-06T16:16:12,42.805,6.029,CST-1368DR,5570,7784,15016,0.157,551
2021-04-06T16:19:14,42.805,6.029,CST-1368DR,5570,7786,15021,0.155,551
2021-04-06T16:22:15,42.805,6.029,CST-1368DR,5570,7784,15016,0.157,551
2021-04-06T16:25:17,42.805,6.029,CST-1368DR,5570,7786,15021,0.155,550
2021-04-06T16:28:18,42.805,6.029,CST-1368DR,5570,7784,15017,0.156,551
2021-04-06T16:31:20,42.805,6.029,CST-1368DR,5570,7782,15012,0.158,551
2021-04-06T16:34:22,42.805,6.029,CST-1368DR,5570,7787,15022,0.155,551
2021-04-06T16:37:23,42.805,6.029,CST-1368DR,5570,7787,15022,0.155,551
2021-04-06T16:40:25,42.805,6.029,CST-1368DR,5570,7784,15017,0.156,551
2021-04-06T16:43:26,42.805,6.029,CST-1368DR,5570,7784,15017,0.156,551
2021-04-06T16:46:28,42.805,6.029,CST-1368DR,5570,7781,15010,0.158,551
2021-04-06T16:49:29,42.805,6.029,CST-1368DR,5570,7763,14976,0.167,551
2021-04-06T16:52:31,42.805,6.029,CST-1368DR,5570,7774,14998,0.162,551